Regional Weather Roundup
Issued by NWS

Home | Current Version | Previous Version | Graphics & Text | Print | Product List | Glossary Off
Versions: 1 2 3 4 5 6 7 8 9 10 11 12 13 14 15 16 17 18 19 20 21 22 23 24 25 26 27 28 29 30 31 32 33 34 35 36 37 38 39 40 41 42 43 44 45 46 47 48 49 50

000
ASUS43 KDTX 251010
RWRMI
MICHIGAN HOURLY REGIONAL WEATHER ROUNDUP
NATIONAL WEATHER SERVICE DETROIT/PONTIAC MI
ISSUED BY NATIONAL WEATHER SERVICE GRAND RAPIDS MI
600 AM EDT SUN JUN 25 2017

NOTE: "FAIR" INDICATES FEW OR NO CLOUDS BELOW 12,000 FEET WITH NO
SIGNIFICANT WEATHER AND/OR OBSTRUCTION TO VISIBILITY.

MIZ047>049-052>055-059>063-066>070-074>076-081>083-251100-
SOUTHEAST LOWER MICHIGAN

CITY           SKY/WX    TMP DP  RH WIND       PRES   REMARKS
ADRIAN         MOCLDY    54  50  86 W3        30.01S
ALMA           CLEAR     54  49  85 W12       29.96S
ANN ARBOR      CLOUDY    53  52  96 SW7       30.00R
BAD AXE        PTCLDY    53  49  86 SW5       29.94R
DETROIT CITY   PTCLDY    58  49  72 W6        29.98R
DETROIT        MOCLDY    56  50  80 SW7       30.00R
FLINT          MOCLDY    55  50  83 SW7       29.97S
GROSSE ILE     PTCLDY    57  50  76 W5        29.98S
HILLSDALE      LGT RAIN  55  48  76 NW7       30.01R
HOWELL         CLOUDY    55  49  78 SW6       29.99R

CITY           SKY/WX    TMP DP  RH WIND       PRES   REMARKS
JACKSON        CLOUDY    56  52  86 SW5       30.00S
LANSING        CLOUDY    59  48  67 W8        29.99R
MASON          CLOUDY    56  51  86 CALM      29.99S
MONROE         CLEAR     55  51  87 SW6       29.99S
MT. CLEMENS    PTCLDY    57  49  74 SW7       29.95R
PONTIAC        CLOUDY    56  49  77 SW8       29.97R
PORT HOPE        N/A     56  50  80 SW6       29.90S
PORT HURON     CLEAR     52  46  82 CALM      29.96R
TRI CITIES     PTCLDY    56  51  84 SW9       29.95R
YPSILANTI      LGT RAIN  59  52  77 W10       30.00R
$$
MIZ043>046-050>051-056>058-064>065-071>073-077>080-251100-
SOUTHWEST LOWER MICHIGAN

CITY           SKY/WX    TMP DP  RH WIND       PRES   REMARKS
BATTLE CREEK   MOCLDY    56  53  90 W7        30.01R
BENTON HARBOR  PTCLDY    58  47  66 W10       30.03R
BIG RAPIDS     CLOUDY    53  48  82 W8        29.96R
COLDWATER      PTCLDY    54  50  86 SW3       30.01S
HOLLAND        CLEAR     57  49  74 W9        30.01R
GRAND RAPIDS   PTCLDY    54  50  86 W8        29.99R
KALAMAZOO      MOCLDY    56  51  84 W3        30.01R
MARSHALL       PTCLDY    55  52  90 SW6       30.00R
MOUNT PLEASANT CLEAR     54  48  78 SW8       29.94R
MUSKEGON       PTCLDY    56  49  77 W10       29.99R
STURGIS        CLOUDY    55  48  77 SW6       30.01R
$$
MIZ016>042-251100-
NORTHERN LOWER MICHIGAN

CITY           SKY/WX    TMP DP  RH WIND       PRES   REMARKS
ALPENA         PTCLDY    53  53 100 CALM      29.90R
BEAVER ISLAND  MOCLDY    50  50 100 CALM      29.90S FOG
BELLAIRE       CLOUDY    55  51  86 CALM      29.91S
CADILLAC       CLOUDY    50  49  97 W3        29.93R
CHARLEVOIX     MOCLDY    56  54  92 W12       29.92S
GAYLORD        CLOUDY    54  52  94 W6        29.90S
HOUGHTON LAKE  CLOUDY    54  48  80 NW7       29.92S
MANISTEE       MOCLDY    55  51  86 W8        29.94S
OSCODA         MOCLDY    53  51  95 SW7       29.90S
PELLSTON       PTCLDY    53  51  93 CALM      29.90R
TRAVERSE CITY  CLOUDY    54  50  86 CALM      29.91R
LUDINGTON      CLOUDY    55  50  81 W3        29.95S
$$
MIZ007>008-015-251100-
EASTERN UPPER MICHIGAN

CITY           SKY/WX    TMP DP  RH WIND       PRES   REMARKS
KINROSS        LGT RAIN  51  51 100 N6        29.90R
MACKINAC ISLAN CLOUDY    52  52 100 NE6       29.90R
NEWBERRY       CLOUDY    50  49  97 CALM      29.90R
S. S. MARIE    LGT RAIN  52  50  93 N3        29.90R
$$
MIZ004>006-011>014-085-251100-
CENTRAL UPPER MICHIGAN

CITY           SKY/WX    TMP DP  RH WIND       PRES   REMARKS
MANISTIQUE     CLOUDY    52  49  89 NW5       29.89S
ESCANABA       CLOUDY    53  52  96 CALM      29.91S
MENOMINEE      CLOUDY    53  52  96 CALM      29.92S
SAWYER-GWINN   CLOUDY    50  49  95 CALM      29.93R
$$
MIZ001>003-009>011-084-251100-
WESTERN UPPER MICHIGAN

CITY           SKY/WX    TMP DP  RH WIND       PRES   REMARKS
IRON MOUNTAIN  CLOUDY    52  49  89 NW6       29.92R
HOUGHTON       FOG       50  49  96 NW10      29.93R VSB 1/2
COPPER HARBOR    N/A     50  49  96 N3        29.93R
IRONWOOD       FOG       52  52 100 CALM      29.98R VSB 1/4
$$

ABBREVIATIONS USED IN REMARKS
   TC - TEMPERATURE IN CELSIUS
  WCI - WIND CHILL INDEX
   HX - HEAT INDEX
  VSB - VISIBILITY





USA.gov is the U.S. government's official web portal to all federal, state and local government web resources and services.